Zurück zum Katalog

NAVSTAR 57

USA 183

AktivNavigationHEO
NORAD 28874·PAYLOAD·🇺🇸 United States

Gestartet Sep 26, 2005 von Cape Canaveral Space Force Station

Loading…

Nächste Überflüge (nächste 24 Stunden)

TLE

AktuellSource: CelesTrak SupGP

Epoche: Sep 16, 2026, 16:44 UTC

1 28874C 05038A   26259.69756944  .00000000  00000+0  00000+0 0  2596
2 28874  54.8087 269.4772 0128848 297.6060 138.9210  2.00559747    15

Verfolge NAVSTAR 57 in Echtzeit mit AllMySat

Download on the App Store